FW8870 Weather Reports


Display with metric or nautical units.
time (UTC)temp
F
wind
direction
speed
MPH
gust
MPH
rain 1hr
in
rain 24hr
in
rain mn
in
humidity
%
barometer
mb
20260507214637 67 288 0.0 0.0 0.00 0.00 0.00 66 1020.2
20260507214134 66 270 0.0 0.0 0.00 0.00 0.00 66 1020.0
20260507213630 66 280 0.0 0.0 0.00 0.00 0.00 68 1020.3
20260507213128 64 323 0.0 0.0 0.00 0.00 0.00 67 1020.1
20260507212623 64 3 0.0 0.0 0.00 0.00 0.00 67 1020.5
20260507212120 66 295 0.0 0.0 0.00 0.00 0.00 67 1020.3
20260507211617 65 280 0.0 0.0 0.00 0.00 0.00 74 1020.6
20260507211113 63 341 0.0 0.0 0.00 0.00 0.00 73 1020.5
20260507210611 63 138 0.0 0.0 0.00 0.00 0.00 73 1020.8
20260507210107 63 19 0.0 0.0 0.00 0.00 0.00 73 1020.7
20260507205603 63 297 0.0 0.0 0.00 0.00 0.00 72 1020.9
20260507205100 63 337 0.0 0.0 0.00 0.00 0.00 74 1020.9
20260507204556 63 200 0.0 0.0 0.00 0.00 0.00 71 1020.8
20260507204054 63 332 0.0 0.0 0.00 0.00 0.00 73 1021.2
20260507203551 62 338 0.0 0.0 0.00 0.00 0.00 76 1021.3
20260507203049 62 350 0.0 0.0 0.00 0.00 0.00 71 1021.2
20260507202544 62 115 0.0 0.0 0.00 0.00 0.00 73 1021.0
20260507202041 62 322 0.0 0.0 0.00 0.00 0.00 73 1021.2
20260507201536 63 328 0.0 0.0 0.00 0.00 0.00 70 1021.3
20260507201033 63 191 0.0 0.0 0.00 0.00 0.00 68 1021.0
20260507200529 62 317 0.0 0.0 0.00 0.00 0.00 73 1021.4
20260507200025 61 309 0.0 0.0 0.00 0.00 0.00 78 1021.6
20260507195522 61 354 0.0 0.0 0.00 0.00 0.00 73 1021.3
20260507195020 60 340 0.0 0.0 0.00 0.00 0.00 73 1021.7
20260507194516 60 312 0.0 0.0 0.00 0.00 0.00 73 1021.5
20260507194012 60 314 0.0 0.0 0.00 0.00 0.00 75 1021.5
20260507193509 60 331 0.0 0.0 0.00 0.00 0.00 78 1021.4
20260507193006 60 2 0.0 0.0 0.00 0.00 0.00 76 1021.7
20260507192502 60 70 0.0 0.0 0.00 0.00 0.00 76 1021.7
20260507191959 60 334 0.0 0.0 0.00 0.00 0.00 77 1021.8
20260507191500 59 3 0.0 0.0 0.00 0.00 0.00 76 1021.7
20260507190957 60 338 0.0 0.0 0.00 0.00 0.00 74 1021.7
20260507190454 60 314 0.0 0.0 0.00 0.00 0.00 75 1021.8
20260507185953 60 358 0.0 0.0 0.00 0.00 0.00 76 1021.8
20260507185450 60 329 0.0 0.0 0.00 0.00 0.00 76 1021.8
20260507184947 59 330 0.0 0.0 0.00 0.00 0.00 76 1021.8
20260507184445 59 333 0.0 0.0 0.00 0.00 0.00 76 1022.0
20260507183943 60 13 0.0 0.0 0.00 0.00 0.00 73 1022.0
20260507183439 60 336 0.0 0.0 0.00 0.00 0.00 78 1021.7
20260507182936 60 344 0.0 0.0 0.00 0.00 0.00 76 1022.0
20260507182432 60 329 0.0 0.0 0.00 0.00 0.00 79 1022.0
20260507181928 59 332 0.0 0.0 0.00 0.00 0.00 78 1022.2
20260507181424 59 313 0.0 0.0 0.00 0.00 0.00 75 1022.1
20260507180921 60 305 0.0 0.0 0.00 0.00 0.00 76 1022.2
20260507180418 60 326 0.0 0.0 0.00 0.00 0.00 78 1022.0
20260507175914 59 333 0.0 0.0 0.00 0.00 0.00 78 1022.1
20260507175411 59 341 0.0 0.0 0.00 0.00 0.00 78 1022.2
20260507174909 60 331 0.0 0.0 0.00 0.00 0.00 74 1022.4
20260507174406 60 340 0.0 0.0 0.00 0.00 0.00 77 1022.2
20260507173903 59 305 0.0 0.0 0.00 0.00 0.00 78 1022.3
20260507173400 59 310 0.0 0.0 0.00 0.00 0.00 79 1022.3
20260507172856 60 347 0.0 0.0 0.00 0.00 0.00 76 1022.2
20260507172353 60 303 0.0 0.0 0.00 0.00 0.00 77 1022.3
20260507171849 60 7 0.0 0.0 0.00 0.00 0.00 78 1022.1
20260507171346 60 355 0.0 0.0 0.00 0.00 0.00 77 1022.2
20260507170843 59 341 0.0 0.0 0.00 0.00 0.00 81 1022.2
20260507170339 58 289 0.0 0.0 0.00 0.00 0.00 80 1022.4
20260507165835 57 324 0.0 0.0 0.00 0.00 0.00 82 1022.2
20260507165331 57 350 0.0 0.0 0.00 0.00 0.00 82 1022.3
20260507164828 57 280 0.0 0.0 0.00 0.00 0.00 83 1022.5
20260507164325 56 334 0.0 0.0 0.00 0.00 0.00 83 1022.4
20260507163822 56 344 0.0 0.0 0.00 0.00 0.00 82 1022.6
20260507163320 56 306 0.0 0.0 0.00 0.00 0.00 82 1022.6
20260507162815 56 359 0.0 0.0 0.00 0.00 0.00 83 1022.4
20260507162311 56 329 0.0 0.0 0.00 0.00 0.00 85 1022.5
20260507161809 56 337 0.0 0.0 0.00 0.00 0.00 84 1022.5
20260507161306 56 314 0.0 0.0 0.00 0.00 0.00 84 1022.7
20260507160802 56 335 0.0 0.0 0.00 0.00 0.00 86 1022.5
20260507160258 56 333 0.0 0.0 0.00 0.00 0.00 86 1022.5
20260507155754 56 316 0.0 0.0 0.00 0.00 0.00 87 1022.6
20260507155250 55 324 0.0 0.0 0.00 0.00 0.00 88 1022.8
20260507154746 55 330 0.0 0.0 0.00 0.00 0.00 89 1022.5
20260507154244 55 342 0.0 0.0 0.00 0.00 0.00 89 1022.6
20260507153741 55 359 0.0 0.0 0.00 0.00 0.00 89 1022.8
20260507153237 54 336 0.0 0.0 0.00 0.00 0.00 89 1022.8
20260507152733 54 330 0.0 0.0 0.00 0.00 0.00 89 1022.9
20260507152230 54 344 0.0 0.0 0.00 0.00 0.00 88 1022.8
20260507151726 54 316 0.0 0.0 0.00 0.00 0.00 88 1022.8
20260507151223 54 324 0.0 0.0 0.00 0.00 0.00 89 1022.8
20260507150720 54 321 0.0 0.0 0.00 0.00 0.00 90 1023.0
20260507150217 54 322 0.0 0.0 0.00 0.00 0.00 90 1022.8
20260507145712 54 336 0.0 0.0 0.00 0.00 0.00 89 1022.9
20260507145209 54 323 0.0 0.0 0.00 0.00 0.00 90 1022.7
20260507144706 54 323 0.0 0.0 0.00 0.00 0.00 89 1022.8
20260507144204 54 323 0.0 0.0 0.00 0.00 0.00 89 1022.9
20260507143700 54 312 0.0 0.0 0.00 0.00 0.00 91 1022.9
20260507143157 54 311 0.0 0.0 0.00 0.00 0.00 91 1022.9
20260507142653 53 312 0.0 0.0 0.00 0.00 0.00 91 1022.9
20260507142150 53 312 0.0 0.0 0.00 0.00 0.00 91 1022.9
20260507141646 53 312 0.0 0.0 0.00 0.00 0.00 90 1022.7
20260507141143 53 324 0.0 0.0 0.00 0.00 0.00 90 1023.0
20260507140639 53 321 0.0 0.0 0.00 0.00 0.00 90 1022.9
20260507140137 53 334 0.0 0.0 0.00 0.00 0.00 90 1022.9
20260507135634 53 304 0.0 0.0 0.00 0.00 0.00 90 1022.8
20260507135131 53 298 0.0 0.0 0.00 0.00 0.00 90 1022.8
20260507134627 53 322 0.0 0.0 0.00 0.00 0.00 91 1022.8
20260507134124 53 286 0.0 0.0 0.00 0.00 0.00 91 1022.6
20260507133620 52 308 0.0 0.0 0.00 0.00 0.00 91 1022.5
20260507133117 52 339 0.0 0.0 0.00 0.00 0.00 93 1022.6
20260507132614 52 323 0.0 0.0 0.00 0.00 0.00 91 1022.6
20260507132110 52 321 0.0 0.0 0.00 0.00 0.00 93 1022.6
20260507131607 52 289 0.0 0.0 0.00 0.00 0.00 94 1022.6
20260507131105 52 276 0.0 0.0 0.00 0.00 0.00 94 1022.5
20260507130601 52 326 0.0 0.0 0.00 0.00 0.00 94 1022.6
20260507130100 51 321 0.0 0.0 0.00 0.00 0.00 96 1022.6
20260507125558 51 322 0.0 0.0 0.00 0.00 0.00 96 1022.7
20260507125055 52 321 0.0 0.0 0.00 0.00 0.00 97 1022.7
20260507124551 51 322 0.0 0.0 0.00 0.00 0.00 96 1022.8
20260507124049 52 321 0.0 0.0 0.00 0.00 0.00 96 1022.8
20260507123547 52 321 0.0 0.0 0.00 0.00 0.00 95 1022.7
20260507123044 52 321 0.0 0.0 0.00 0.00 0.00 94 1023.0
20260507122539 52 321 0.0 0.0 0.00 0.00 0.00 94 1023.1
20260507122035 52 321 0.0 0.0 0.00 0.00 0.00 94 1023.0
20260507121531 52 321 0.0 0.0 0.00 0.00 0.00 94 1023.0
20260507121027 52 322 0.0 0.0 0.00 0.00 0.00 93 1022.9
20260507120523 52 322 0.0 0.0 0.00 0.00 0.00 92 1022.9
20260507120020 52 322 0.0 0.0 0.00 0.00 0.00 93 1023.1
20260507115516 52 322 0.0 0.0 0.00 0.00 0.00 93 1023.0
20260507115012 53 321 0.0 0.0 0.00 0.00 0.00 91 1023.2
20260507114508 53 320 0.0 0.0 0.00 0.00 0.00 89 1022.9
20260507114006 53 320 0.0 0.0 0.00 0.00 0.00 89 1022.9
20260507113503 53 342 0.0 0.0 0.00 0.00 0.00 88 1023.0
20260507113000 53 342 0.0 0.0 0.00 0.00 0.00 88 1022.7
20260507112458 53 278 0.0 0.0 0.00 0.00 0.00 87 1023.0
20260507111954 53 302 0.0 0.0 0.00 0.00 0.00 86 1022.9
20260507111452 53 336 0.0 0.0 0.00 0.00 0.00 87 1022.9
20260507110948 53 322 0.0 0.0 0.00 0.00 0.00 87 1022.9
20260507110444 53 4 0.0 0.0 0.00 0.00 0.00 87 1023.0
20260507105940 53 7 0.0 0.0 0.00 0.00 0.00 87 1022.8
20260507105438 53 12 0.0 0.0 0.00 0.00 0.00 88 1022.7
20260507104934 53 280 0.0 0.0 0.00 0.00 0.00 88 1022.8
20260507104431 53 137 0.0 0.0 0.00 0.00 0.00 87 1022.9
20260507103927 53 305 0.0 0.0 0.00 0.00 0.00 88 1023.0
20260507103424 53 307 0.0 0.0 0.00 0.00 0.00 87 1022.9
20260507102920 53 94 0.0 0.0 0.00 0.00 0.00 87 1023.0
20260507102417 53 114 0.0 0.0 0.00 0.00 0.00 87 1022.8
20260507101913 53 318 0.0 0.0 0.00 0.00 0.00 88 1023.0
20260507101409 53 332 0.0 0.0 0.00 0.00 0.00 88 1022.9
20260507100905 53 301 0.0 0.0 0.00 0.00 0.00 88 1022.9
20260507100403 53 337 0.0 0.0 0.00 0.00 0.00 87 1023.0
20260507095901 53 19 0.0 0.0 0.00 0.00 0.00 87 1023.0
20260507095357 53 7 0.0 0.0 0.00 0.00 0.00 87 1023.1
20260507094855 53 352 0.0 0.0 0.00 0.00 0.00 87 1023.0
20260507094351 53 1 0.0 0.0 0.00 0.00 0.00 88 1023.0
20260507093848 53 321 0.0 0.0 0.00 0.00 0.00 88 1023.0
20260507093346 53 251 0.0 0.0 0.00 0.00 0.00 88 1022.9
20260507092844 53 317 0.0 0.0 0.00 0.00 0.00 88 1023.0
20260507092340 53 325 0.0 0.0 0.00 0.00 0.00 88 1022.8
20260507091837 53 315 0.0 0.0 0.00 0.00 0.00 88 1023.0
20260507091333 53 318 0.0 0.0 0.00 0.00 0.00 87 1022.9
20260507090829 53 310 0.0 0.0 0.00 0.00 0.00 88 1022.9
20260507090325 53 337 0.0 0.0 0.00 0.00 0.00 87 1023.0
20260507085823 53 276 0.0 0.0 0.00 0.00 0.00 88 1022.8
20260507085319 53 331 0.0 0.0 0.00 0.00 0.00 88 1022.9
20260507084817 53 338 0.0 0.0 0.00 0.00 0.00 88 1022.8
20260507084313 53 299 0.0 0.0 0.00 0.00 0.00 88 1023.0
20260507083811 54 359 0.0 0.0 0.00 0.00 0.00 87 1022.9
20260507083307 53 82 0.0 0.0 0.00 0.00 0.00 87 1022.6
20260507082803 53 15 0.0 0.0 0.00 0.00 0.00 88 1023.2
20260507082259 53 31 0.0 0.0 0.00 0.00 0.00 88 1022.7
20260507081756 53 345 0.0 0.0 0.00 0.00 0.00 88 1023.0
20260507081252 53 84 0.0 0.0 0.00 0.00 0.00 89 1022.8
20260507080749 54 137 0.0 0.0 0.00 0.00 0.00 89 1022.9
20260507080245 54 335 0.0 0.0 0.00 0.00 0.00 88 1022.8
20260507075740 54 341 0.0 0.0 0.00 0.00 0.00 88 1022.9
20260507075237 54 26 0.0 0.0 0.00 0.00 0.00 88 1022.9
20260507074733 54 12 0.0 0.0 0.00 0.00 0.00 88 1022.8
20260507074232 54 175 0.0 0.0 0.00 0.00 0.00 88 1022.8
20260507073728 54 37 0.0 0.0 0.00 0.00 0.00 88 1022.5
20260507073224 54 104 0.0 0.0 0.00 0.00 0.00 88 1022.9
20260507072722 54 25 0.0 0.0 0.00 0.00 0.00 88 1022.6
20260507072219 54 291 0.0 0.0 0.00 0.00 0.00 88 1022.6
20260507071717 54 80 1.0 2.0 0.00 0.00 0.00 88 1022.6
20260507071213 54 10 0.0 0.0 0.00 0.00 0.00 88 1022.5
20260507070710 54 329 0.0 0.0 0.00 0.00 0.00 88 1022.8
20260507070207 54 342 0.0 0.0 0.00 0.00 0.00 88 1022.6
20260507065703 54 358 0.0 0.0 0.00 0.00 0.00 88 1022.5
20260507065200 54 347 0.0 1.0 0.00 0.00 0.00 88 1022.5
20260507064658 54 314 0.0 0.0 0.00 0.00 0.00 88 1022.6
20260507064156 55 77 0.0 0.0 0.00 0.00 0.00 87 1022.5
20260507063654 55 44 0.0 0.0 0.00 0.00 0.00 88 1022.7
20260507063150 55 11 0.0 0.0 0.00 0.00 0.00 87 1022.5
20260507062647 55 111 0.0 0.0 0.00 0.00 0.00 86 1022.3
20260507062145 55 66 0.0 1.0 0.00 0.00 0.00 86 1022.3
20260507061643 55 106 0.0 0.0 0.00 0.00 0.00 86 1022.6
20260507061140 55 179 0.0 0.0 0.00 0.00 0.00 86 1022.3
20260507060638 55 153 1.0 2.0 0.00 0.00 0.00 86 1022.1
20260507060134 55 137 1.0 2.0 0.00 0.00 0.00 86 1022.2
20260507055629 55 30 0.0 1.0 0.00 0.00 0.00 86 1022.3
20260507055126 55 138 0.0 0.0 0.00 0.00 0.00 87 1022.3
20260507054622 55 349 0.0 0.0 0.00 0.00 0.00 87 1021.9
20260507054119 55 14 1.0 3.0 0.00 0.00 0.00 86 1022.2
20260507053617 55 27 0.0 0.0 0.00 0.00 0.00 87 1022.1
20260507053115 55 30 0.0 1.0 0.00 0.00 0.00 87 1021.9
20260507052613 55 17 0.0 0.0 0.00 0.00 0.00 87 1022.2
20260507052109 55 78 0.0 0.0 0.00 0.00 0.00 87 1022.1
20260507051607 55 78 0.0 0.0 0.00 0.00 0.00 87 1022.1
20260507051103 55 200 0.0 0.0 0.00 0.00 0.00 87 1022.3
20260507050600 55 170 0.0 0.0 0.00 0.00 0.00 88 1022.0
20260507050057 55 325 0.0 0.0 0.00 0.00 0.00 87 1022.1
20260507045553 55 337 0.0 0.0 0.00 0.00 0.00 88 1022.2
20260507045051 55 163 1.0 5.0 0.00 0.00 0.00 88 1022.2
20260507044547 55 180 0.0 0.0 0.00 0.00 0.00 89 1022.2
20260507044044 55 200 0.0 0.0 0.00 0.00 0.00 89 1022.1
20260507043540 55 199 1.0 2.0 0.00 0.00 0.00 88 1022.2
20260507043038 55 336 0.0 0.0 0.00 0.00 0.00 87 1022.1
20260507042533 55 70 0.0 0.0 0.00 0.00 0.00 88 1022.1
20260507042029 55 28 0.0 0.0 0.00 0.00 0.00 87 1022.0
20260507041526 55 341 0.0 0.0 0.00 0.00 0.00 87 1022.0
20260507041023 55 37 0.0 0.0 0.00 0.00 0.00 87 1022.1
20260507040519 55 246 0.0 0.0 0.00 0.00 0.00 87 1022.0
20260507040015 55 158 0.0 0.0 0.00 0.00 0.00 87 1022.0
20260507035512 55 34 0.0 0.0 0.00 0.00 0.00 87 1022.0
20260507035008 55 342 0.0 0.0 0.00 0.00 0.00 87 1021.9
20260507034505 55 303 0.0 0.0 0.00 0.00 0.00 87 1021.8
20260507034003 55 1 0.0 0.0 0.00 0.00 0.00 87 1021.8
20260507033501 56 81 0.0 0.0 0.00 0.00 0.00 87 1021.7
20260507032958 56 304 0.0 0.0 0.00 0.00 0.00 86 1021.6
20260507032454 56 335 0.0 0.0 0.00 0.00 0.00 86 1022.0
20260507031950 56 132 0.0 0.0 0.00 0.00 0.00 86 1021.8
20260507031447 56 107 1.0 3.0 0.00 0.00 0.00 86 1021.9
20260507030944 56 342 0.0 0.0 0.00 0.00 0.00 87 1021.7
20260507030441 56 324 0.0 0.0 0.00 0.00 0.00 86 1021.7
20260507025938 56 188 0.0 0.0 0.00 0.00 0.00 86 1022.0
20260507025435 56 80 0.0 0.0 0.00 0.00 0.00 86 1021.8
20260507024933 56 347 0.0 0.0 0.00 0.00 0.00 86 1021.8
20260507024431 56 217 0.0 0.0 0.00 0.00 0.00 87 1021.7
20260507023926 56 162 0.0 0.0 0.00 0.00 0.00 87 1021.6
20260507023423 56 187 0.0 0.0 0.00 0.00 0.00 86 1021.7
20260507022920 56 315 0.0 0.0 0.00 0.00 0.00 86 1021.6
20260507022417 56 316 0.0 0.0 0.00 0.00 0.00 85 1021.7
20260507021913 56 355 0.0 0.0 0.00 0.00 0.00 86 1021.9
20260507021408 56 153 0.0 0.0 0.00 0.00 0.00 86 1021.7
20260507020906 56 233 0.0 0.0 0.00 0.00 0.00 86 1021.8
20260507020403 56 292 0.0 0.0 0.00 0.00 0.00 86 1021.8
20260507015859 56 137 0.0 0.0 0.00 0.00 0.00 86 1021.8
20260507015358 57 356 0.0 0.0 0.00 0.00 0.00 85 1021.9
20260507014854 57 184 0.0 0.0 0.00 0.00 0.00 85 1021.7
20260507014350 57 343 0.0 0.0 0.00 0.00 0.00 85 1021.9
20260507013847 57 315 0.0 0.0 0.00 0.00 0.00 85 1021.8
20260507013344 57 301 0.0 0.0 0.00 0.00 0.00 85 1021.5
20260507012842 57 106 0.0 0.0 0.00 0.00 0.00 85 1021.9
20260507012337 57 350 0.0 0.0 0.00 0.00 0.00 85 1021.7
20260507011834 57 17 0.0 0.0 0.00 0.00 0.00 84 1021.7
20260507011332 57 303 0.0 0.0 0.00 0.00 0.00 84 1021.4
20260507010826 57 338 0.0 0.0 0.00 0.00 0.00 84 1021.6
20260507010321 57 99 0.0 1.0 0.00 0.00 0.00 84 1021.5
20260507005819 58 260 0.0 0.0 0.00 0.00 0.00 83 1021.6
20260507005316 58 354 0.0 0.0 0.00 0.00 0.00 83 1021.7
20260507004813 58 332 0.0 0.0 0.00 0.00 0.00 83 1021.6
20260507004310 58 173 1.0 3.0 0.00 0.00 0.00 83 1021.5
20260507003807 58 172 1.0 2.0 0.00 0.00 0.00 83 1021.7
20260507003302 59 312 0.0 0.0 0.00 0.00 0.00 82 1021.8
20260507002757 59 125 0.0 0.0 0.00 0.00 0.00 82 1021.7
20260507002254 59 328 0.0 0.0 0.00 0.00 0.00 82 1021.8
20260507001751 59 66 0.0 0.0 0.00 0.00 0.00 82 1021.7
20260507001248 59 217 0.0 0.0 0.00 0.00 0.00 82 1021.5
20260507000744 59 101 0.0 0.0 0.00 0.00 0.00 83 1021.7
20260507000240 59 197 1.0 2.0 0.00 0.00 0.00 83 1021.5
20260506235737 59 185 0.0 0.0 0.00 0.00 0.00 84 1021.4
20260506235232 59 7 0.0 0.0 0.00 0.00 0.00 83 1021.6
20260506234730 59 144 1.0 2.0 0.00 0.00 0.00 82 1021.2
20260506234227 59 192 0.0 0.0 0.00 0.00 0.00 83 1021.4
20260506233724 59 188 0.0 0.0 0.00 0.00 0.00 83 1021.6
20260506233221 59 231 0.0 0.0 0.00 0.00 0.00 84 1021.4
20260506232717 59 86 0.0 0.0 0.00 0.00 0.00 84 1021.6
20260506232212 58 282 0.0 0.0 0.00 0.00 0.00 86 1021.5
20260506231710 58 204 0.0 0.0 0.00 0.00 0.00 86 1021.7
20260506231208 58 233 0.0 0.0 0.00 0.00 0.00 87 1021.5
20260506230704 58 319 0.0 0.0 0.00 0.00 0.00 88 1021.7
20260506230202 58 161 0.0 0.0 0.00 0.00 0.00 86 1021.6
20260506225658 58 216 0.0 0.0 0.00 0.00 0.00 87 1021.8
20260506225155 58 192 0.0 0.0 0.00 0.00 0.00 87 1022.1
20260506224651 58 294 0.0 0.0 0.00 0.00 0.00 89 1021.8
20260506224148 57 346 0.0 0.0 0.00 0.00 0.00 88 1021.6
20260506223645 57 65 0.0 0.0 0.00 0.00 0.00 89 1021.9
20260506223140 57 313 0.0 0.0 0.00 0.00 0.00 89 1021.9
20260506222637 57 316 0.0 0.0 0.00 0.00 0.00 89 1021.8
20260506222133 57 11 0.0 0.0 0.00 0.00 0.00 88 1021.7
20260506221632 57 327 0.0 0.0 0.00 0.00 0.00 88 1021.8
20260506221130 56 318 0.0 0.0 0.00 0.00 0.00 89 1021.8
20260506220626 56 334 0.0 0.0 0.00 0.00 0.00 89 1021.9
20260506220121 56 289 0.0 0.0 0.00 0.00 0.00 88 1021.8
20260506215618 56 308 0.0 0.0 0.00 0.00 0.00 89 1022.0
20260506215113 56 337 0.0 0.0 0.00 0.00 0.00 89 1021.8